TimeCDT,TemperatureF,Dew PointF,Humidity,Sea Level PressureIn,VisibilityMPH,Wind Direction,Wind SpeedMPH,Gust SpeedMPH,PrecipitationIn,Events,Conditions,WindDirDegrees,DateUTC
12:54 AM,59.0,46.4,63,30.14,10.0,SE,6.9,-,N/A,,Clear,130,2011-10-10 05:54:00
1:54 AM,57.2,46.4,67,30.14,10.0,SE,5.8,-,N/A,,Clear,130,2011-10-10 06:54:00
2:54 AM,55.0,46.0,72,30.12,10.0,SE,4.6,-,N/A,,Clear,140,2011-10-10 07:54:00
3:54 AM,55.9,46.0,69,30.12,10.0,ESE,6.9,-,N/A,,Clear,120,2011-10-10 08:54:00
4:54 AM,55.4,46.4,72,30.12,10.0,SSE,5.8,-,N/A,,Clear,150,2011-10-10 09:54:00
5:54 AM,55.0,46.9,74,30.12,10.0,SE,5.8,-,N/A,,Clear,140,2011-10-10 10:54:00
6:54 AM,54.0,46.0,75,30.13,10.0,East,4.6,-,N/A,,Clear,100,2011-10-10 11:54:00
7:54 AM,55.4,48.2,77,30.13,10.0,ESE,6.9,-,N/A,,Clear,120,2011-10-10 12:54:00
8:54 AM,63.0,50.0,63,30.14,10.0,SE,5.8,-,N/A,,Clear,140,2011-10-10 13:54:00
9:54 AM,69.1,51.1,53,30.13,10.0,South,8.1,-,N/A,,Clear,190,2011-10-10 14:54:00
10:54 AM,71.6,53.6,53,30.13,10.0,SSW,11.5,-,N/A,,Clear,200,2011-10-10 15:54:00
11:54 AM,75.0,53.1,46,30.10,10.0,South,11.5,-,N/A,,Clear,180,2011-10-10 16:54:00
12:54 PM,75.0,53.1,46,30.07,10.0,South,10.4,-,N/A,,Clear,180,2011-10-10 17:54:00
1:54 PM,78.1,53.1,42,30.05,10.0,South,13.8,20.7,N/A,,Clear,190,2011-10-10 18:54:00
2:54 PM,77.0,53.6,44,30.04,10.0,SE,12.7,-,N/A,,Partly Cloudy,130,2011-10-10 19:54:00
3:54 PM,77.0,53.1,43,30.01,10.0,SE,11.5,-,N/A,,Partly Cloudy,140,2011-10-10 20:54:00
4:54 PM,75.9,53.1,45,30.00,10.0,SSE,11.5,-,N/A,,Clear,160,2011-10-10 21:54:00
5:54 PM,75.0,53.1,46,30.00,10.0,SSE,9.2,-,N/A,,Clear,150,2011-10-10 22:54:00
6:54 PM,71.1,53.1,53,30.00,10.0,SE,6.9,-,N/A,,Clear,140,2011-10-10 23:54:00
7:54 PM,68.0,53.1,59,30.00,10.0,SE,5.8,-,N/A,,Clear,140,2011-10-11 00:54:00
8:54 PM,66.0,53.1,63,30.00,10.0,SSE,5.8,-,N/A,,Clear,150,2011-10-11 01:54:00
9:54 PM,64.9,53.1,65,30.01,10.0,SSE,3.5,-,N/A,,Mostly Cloudy,150,2011-10-11 02:54:00
10:54 PM,66.9,54.0,63,30.00,10.0,SSE,5.8,-,N/A,,Clear,150,2011-10-11 03:54:00
11:54 PM,66.2,53.6,64,30.00,10.0,SSE,5.8,-,N/A,,Overcast,160,2011-10-11 04:54:00